Location: Fontevrault
(47.1823°N, 0.0493°E)
Time: 09:30:19
(UTC+00:00)

Cosmos 2100 Rocket - Pass Details

Date: 16 June 2021
Orbit: 955 x 1001 km, 82.9° (Epoch: 01 August)

Event Time Altitude Azimuth Distance (km) Brightness Sun altitude
Rises 21:40:09 0° 349° (N) 3,738 8.5 -12.7°
Reaches altitude 10° 21:42:42 10° 347° (NNW) 2,782 7.6 -12.9°
Maximum altitude 21:49:03 71° 265° (W) 1,053 4.3 -13.5°
Enters shadow 21:54:45 13° 184° (S) 2,530 5.7 -13.9°
